Vorticity
-2 -1 -1 -2 -2 -2 -2 -1 -1 1 2 2 2 1 3 5 5 4 4 3 3 3 2 3 3 3 2 3 4 3 3 3 3 4 2 1 2 4 6 6 5 5 6 4 3 3 2 2 2 2 2 1 1 1 2 2 2 2 3 3 3 4 4 4 4 5 5 5 6 6 6 6 6 6 6 6 6 5 4 5 4 3 3 4 5 6 6 6 7 7 6 6 6 6 7 6 5
3 3 3 3 3 1 1 0 1 2 2 2 2 3 6 9 9 6 6 5 4 3 3 4 4 4 3 4 5 4 4 3 4 4 3 2 2 2 3 6 5 5 7 6 4 5 3 3 3 3 3 2 2 1 1 1 1 2 2 2 3 3 3 3 3 3 3 3 3 4 5 5 5 5 5 6 6 5 5 5 5 4 3 3 4 4 5 6 6 6 6 5 6 6 7 7 7
12 12 12 12 13 13 12 9 8 6 4 6 8 9 12 12 9 7 7 6 5 4 4 5 5 4 4 5 6 6 5 5 5 3 3 4 4 3 1 3 5 5 8 6 5 6 4 4 3 3 4 4 3 3 2 1 2 1 2 2 2 2 2 2 3 3 3 2 2 2 3 4 4 4 5 5 5 5 5 5 5 5 4 4 3 3 3 4 4 4 5 5 5 5 6 7 7
15 16 16 17 17 17 18 16 14 13 11 11 12 12 12 9 7 7 6 5 5 5 5 5 5 6 6 7 6 5 5 4 4 3 4 4 4 5 2 2 2 2 6 6 5 6 5 4 3 3 4 4 5 5 4 4 3 2 1 1 2 2 2 2 2 2 2 2 2 2 2 2 3 3 4 4 4 5 5 6 6 6 5 5 5 4 4 3 3 3 3 4 4 4 4 5 6
12 12 12 12 12 12 13 12 12 12 10 10 10 10 10 9 7 7 7 7 7 7 8 8 8 9 9 9 10 8 7 6 5 4 4 4 4 4 4 4 3 1 3 5 5 7 6 5 4 3 3 3 4 4 5 5 5 4 3 1 1 1 1 2 2 2 2 2 2 2 2 2 2 2 3 3 3 4 5 5 6 6 6 6 6 6 5 5 4 4 4 3 3 3 3 4 4
9 9 8 9 9 10 10 9 9 10 10 9 8 10 12 11 8 8 9 10 9 10 10 9 10 10 10 11 12 12 12 11 10 9 8 6 4 3 4 5 5 3 2 2 4 7 7 6 5 4 3 2 2 2 3 4 5 5 5 4 3 2 2 2 2 2 2 2 2 2 2 2 2 3 3 3 3 3 4 4 4 5 5 6 6 6 6 6 6 6 5 5 5 4 4 4 4
7 7 8 8 8 9 11 9 11 15 13 11 11 12 13 11 9 9 11 12 11 11 10 10 10 10 10 10 11 12 12 13 13 14 14 12 10 7 5 5 5 5 4 2 2 4 6 7 6 5 4 3 3 2 2 2 3 3 4 5 4 4 3 3 3 2 2 2 2 2 2 2 2 3 3 3 3 3 3 3 3 4 4 5 5 5 6 6 6 6 6 5 5 5 5 5 5
6 7 6 6 6 7 10 8 11 14 11 10 11 10 10 11 11 11 13 13 11 12 13 12 12 11 9 10 11 10 12 13 12 12 13 13 14 12 10 8 5 5 5 4 3 3 5 7 7 6 5 4 3 2 2 2 2 2 2 3 3 4 3 4 3 3 2 2 2 2 2 2 2 2 2 2 2 2 2 3 3 3 3 4 4 4 4 4 5 5 5 5 5 5 5 5 5
6 7 6 5 5 6 7 7 10 11 9 9 6 7 8 8 9 9 11 11 11 11 12 13 13 14 13 12 10 9 10 9 9 9 10 11 12 13 13 12 10 8 7 6 5 3 3 5 7 8 7 5 4 3 2 2 1 1 1 2 3 3 4 4 4 3 3 3 3 2 2 2 2 2 2 2 2 2 2 2 2 2 2 3 3 3 3 3 4 4 4 4 4 4 4 4 4
7 7 7 6 5 6 5 5 10 9 6 4 3 6 5 4 6 6 7 7 7 6 8 11 11 12 13 12 9 9 10 8 7 8 9 9 9 10 11 12 12 11 9 7 7 6 4 3 5 6 7 6 5 4 3 3 2 1 1 1 2 2 3 4 4 5 5 5 5 4 3 2 2 2 2 2 2 2 2 3 3 3 2 2 3 3 3 3 3 4 4 4 4 4 4 4 4
7 7 8 7 7 7 6 6 8 8 5 4 4 6 4 3 5 5 5 5 4 4 5 7 6 7 9 9 8 10 12 9 8 9 10 10 10 10 11 11 12 12 12 10 8 8 6 4 3 3 4 5 6 7 6 4 3 3 1 1 1 1 1 2 3 4 5 6 7 7 6 5 5 4 3 3 3 3 2 3 3 3 3 3 3 3 3 4 4 4 4 5 5 5 5 5 5
6 6 8 8 8 8 8 7 6 8 7 5 5 4 3 4 4 4 5 4 4 4 5 5 6 6 6 7 6 7 9 8 7 8 9 9 10 11 10 11 11 12 12 12 11 10 9 7 5 4 3 4 5 7 9 8 6 4 3 2 1 1 1 1 1 1 3 4 5 7 7 7 6 5 5 5 4 3 3 3 4 4 5 5 5 4 3 3 3 4 5 5 5 5 6 6 6
5 6 6 6 8 7 7 7 6 8 6 4 5 5 5 5 5 5 4 4 3 3 4 4 5 5 6 6 5 6 8 8 7 7 7 8 9 10 9 9 10 10 10 11 11 11 11 10 8 6 5 4 4 5 8 10 9 6 5 5 3 3 2 2 2 1 1 2 3 4 5 6 5 6 5 5 4 3 3 3 3 4 5 6 7 6 5 3 2 3 4 4 5 5 6 6 6
4 5 5 5 6 6 5 6 6 7 7 6 6 8 8 6 7 7 7 6 5 6 5 4 4 5 5 5 4 3 6 8 8 8 8 9 9 9 9 9 9 9 9 9 9 10 10 10 10 9 8 7 7 6 6 8 11 10 6 5 5 5 4 3 3 3 3 3 3 4 5 5 5 5 5 4 3 2 2 2 2 2 3 4 5 7 7 6 4 3 3 4 4 4 5 5 4
5 4 4 5 5 4 4 5 6 5 6 7 6 7 7 7 7 7 8 8 7 8 7 7 7 6 6 6 4 1 2 6 6 6 6 7 8 9 10 10 10 10 9 9 9 8 8 9 9 10 10 10 10 10 8 7 10 11 8 5 5 6 5 4 3 2 3 3 4 5 6 6 6 6 5 5 4 3 3 3 3 4 4 5 5 5 6 7 6 4 3 3 4 4 4 4 4
4 4 5 4 3 4 4 5 5 4 5 6 5 3 5 6 4 4 7 6 5 6 7 11 10 7 9 10 9 4 2 4 5 5 4 4 5 5 7 8 9 10 10 10 10 9 9 8 8 8 8 8 8 9 10 9 9 9 8 6 5 5 6 6 4 2 1 2 3 4 6 6 7 7 7 6 5 5 4 5 5 6 6 6 6 6 6 6 6 6 5 3 3 4 4 4 3
4 4 4 3 3 4 4 5 4 3 4 5 5 4 6 6 5 5 4 4 5 5 5 11 11 6 8 12 12 9 7 8 7 6 7 6 7 7 6 6 6 8 8 9 9 10 10 10 10 10 9 9 8 7 7 7 7 7 6 5 5 5 6 7 6 4 2 2 2 3 4 6 7 7 7 7 5 4 4 6 7 6 5 5 5 5 6 7 6 6 6 5 3 3 3 2 2
2 3 2 2 3 3 2 3 3 3 3 3 3 4 5 4 6 5 3 4 5 4 3 6 8 4 7 10 9 10 10 9 7 7 8 7 8 9 8 8 7 8 7 7 8 8 9 10 10 10 11 11 11 10 8 7 6 6 6 6 5 5 6 7 6 5 4 3 2 2 3 4 6 6 6 5 4 3 3 4 5 3 3 4 5 6 6 6 7 6 6 6 5 4 2 0 -0
2 1 1 2 1 1 1 1 1 2 2 1 1 1 1 2 3 3 4 5 3 3 3 3 4 4 7 9 8 9 8 6 6 7 7 6 6 6 6 7 7 7 7 7 7 7 8 8 9 9 9 10 11 11 11 9 8 7 7 6 6 6 6 6 6 6 4 3 2 2 2 3 4 4 4 3 3 3 3 3 3 1 1 3 5 7 8 8 7 7 6 6 7 7 5 2 -0
1 1 1 2 1 -0 1 1 0 1 1 1 2 0 -1 -0 1 2 3 4 3 3 2 1 2 2 5 8 8 7 6 6 7 7 6 5 5 5 4 5 5 5 5 5 5 6 7 7 8 9 8 8 8 9 10 10 9 8 7 7 6 5 5 5 5 5 5 4 3 2 2 3 4 4 3 3 3 2 2 2 2 1 1 1 2 4 7 9 9 7 7 7 7 8 7 6 4
1 0 1 2 2 0 1 2 0 1 1 1 2 1 1 1 1 1 -0 2 3 2 2 2 3 2 3 7 6 4 4 4 5 5 5 5 5 5 5 5 5 4 4 5 4 4 5 6 7 8 9 8 8 7 8 9 9 9 8 8 8 7 6 5 5 5 5 4 4 4 4 4 4 4 4 4 4 4 3 2 1 1 1 1 2 2 3 6 8 7 6 6 6 6 7 7 7
2 1 1 1 1 -0 -0 1 0 2 2 1 1 0 2 3 2 1 1 6 5 1 2 2 3 2 2 5 5 2 3 4 4 3 3 3 4 4 4 4 4 4 5 5 5 5 5 6 6 6 7 8 10 10 9 8 8 8 8 8 8 8 8 7 7 7 7 7 6 6 6 6 5 5 5 5 5 5 4 3 2 1 1 1 2 3 4 4 6 7 5 4 3 3 5 6 7
2 3 3 2 1 -0 -1 -1 -2 -1 0 1 -0 0 3 2 2 2 5 9 5 2 2 1 1 0 0 4 4 2 2 3 4 4 3 3 3 4 4 3 3 2 4 5 4 5 7 7 6 6 7 7 9 10 11 11 10 9 9 9 8 8 8 8 8 8 8 7 7 7 6 5 4 4 3 3 4 4 5 4 4 3 3 3 3 4 5 5 5 6 6 5 5 5 5 6 6
2 2 3 3 4 3 1 1 -1 -1 0 1 0 2 2 1 -0 1 7 7 1 1 3 3 3 0 0 2 2 -0 -1 1 2 3 3 2 3 4 4 4 3 2 4 4 3 4 7 7 7 7 7 8 8 7 8 10 12 11 9 10 10 10 9 9 9 8 8 9 9 9 8 8 7 6 6 6 6 6 7 7 7 7 7 7 7 7 7 7 6 6 7 6 6 7 7 7 6
5 3 2 3 4 4 5 5 5 4 3 3 5 5 2 1 1 3 8 4 -1 1 2 3 3 4 4 3 3 1 -1 -1 0 1 2 1 2 2 4 4 3 3 3 3 4 4 6 7 8 8 7 8 8 8 6 6 8 10 10 10 9 9 9 9 10 9 9 10 10 10 10 11 10 10 10 9 8 8 9 9 10 10 10 10 10 9 9 8 7 7 6 6 6 6 6 6 6
7 5 4 5 4 4 5 6 6 4 3 4 6 6 3 3 3 5 7 1 -2 3 5 4 3 4 5 3 4 5 3 1 1 2 1 1 2 2 3 3 2 2 3 4 5 5 6 8 8 7 8 8 8 8 7 5 5 6 8 10 9 8 7 7 8 9 9 9 10 10 10 10 10 10 9 8 7 7 9 10 10 10 10 10 10 10 9 8 7 7 6 5 5 4 4 5 5
6 5 6 7 5 4 4 4 5 4 4 6 5 5 4 4 6 8 5 0 2 6 8 7 4 4 4 3 4 5 6 4 4 4 2 2 4 3 3 3 2 2 2 3 5 5 6 8 7 6 6 8 9 7 7 7 5 4 5 7 9 10 9 8 7 7 7 8 9 10 11 11 10 10 9 8 7 8 9 9 9 8 9 9 10 10 10 9 8 7 6 5 4 3 3 5 7
5 6 7 7 6 6 6 6 6 5 7 9 8 7 6 7 10 11 6 3 5 7 8 8 6 6 5 6 6 6 7 6 6 5 4 5 6 5 4 3 3 2 2 3 5 7 8 7 6 5 6 7 8 7 7 8 7 5 4 3 6 9 11 12 10 8 7 8 9 10 11 12 12 12 10 9 8 8 7 5 4 4 6 7 8 9 9 10 9 8 6 5 4 3 4 7 8
5 6 6 6 7 8 10 9 6 7 9 12 11 8 8 11 11 11 9 7 7 6 7 8 7 8 8 9 9 8 8 9 9 7 5 6 6 7 7 5 5 4 3 3 5 8 8 5 4 5 6 6 6 7 8 8 8 6 5 4 4 6 8 10 11 9 8 9 8 8 9 11 12 14 13 12 11 9 8 6 5 5 6 7 8 9 9 9 10 9 8 6 6 5 6 9 7
7 7 6 9 9 7 8 7 5 10 12 12 11 8 10 14 12 11 12 9 9 8 9 10 10 10 10 11 12 11 9 10 11 9 8 7 7 8 8 8 7 5 5 4 5 7 6 4 4 6 6 6 6 8 9 8 9 7 7 7 5 5 5 7 8 7 7 8 9 9 9 9 10 11 12 13 13 13 12 10 10 11 10 10 9 9 10 11 11 11 10 8 8 8 9 9 6
9 9 10 13 10 6 8 7 7 12 13 11 12 9 12 19 15 13 14 9 8 9 10 11 12 13 13 13 12 12 12 12 13 12 10 8 7 8 9 10 8 6 5 5 5 5 6 5 3 6 8 7 6 9 11 9 9 7 7 7 6 6 5 5 6 6 7 7 8 9 10 11 11 11 10 10 11 12 13 12 12 10 9 9 8 9 10 12 13 13 12 10 9 9 9 8 5
11 11 11 10 5 4 8 9 9 10 10 9 10 6 11 25 23 12 10 9 9 10 10 10 11 11 12 12 12 13 13 13 13 12 10 9 9 9 9 10 8 7 6 7 6 5 7 5 4 8 10 8 7 9 12 11 9 8 7 8 7 6 5 5 6 6 7 7 7 7 8 10 10 11 10 10 9 9 10 11 11 9 8 6 6 8 9 9 11 13 13 11 10 9 9 9 7
14 12 9 5 3 5 6 7 9 8 6 4 4 2 5 17 18 11 9 9 9 9 10 8 8 8 9 10 10 11 12 11 12 11 11 11 12 12 11 9 8 9 9 7 6 6 8 6 5 9 10 8 7 9 12 11 9 8 7 7 7 6 5 5 5 6 6 6 7 7 8 9 10 11 11 10 9 8 8 9 10 10 9 9 8 8 9 9 9 12 14 13 11 10 10 10 10
10 6 3 3 4 6 4 6 7 4 4 3 2 2 1 3 7 11 13 12 10 8 9 10 6 4 7 10 11 11 11 9 9 11 12 12 12 11 10 9 9 11 11 7 6 7 8 8 6 7 9 8 8 9 11 10 9 8 7 6 5 5 4 4 5 5 5 6 8 9 10 11 11 11 10 11 10 9 8 8 9 10 10 10 10 11 11 10 9 11 14 13 11 9 9 11 11
4 2 3 4 5 5 5 5 5 4 4 3 3 3 3 3 4 9 8 10 14 10 8 10 7 5 7 10 13 13 11 9 10 11 10 8 8 9 9 9 9 9 9 7 7 7 9 9 7 6 8 9 9 9 9 7 7 7 5 4 4 4 4 4 4 5 5 7 9 11 12 12 11 11 10 10 10 10 11 10 10 10 12 12 11 12 13 12 11 12 14 13 11 8 9 11 10
0 2 4 4 4 5 7 6 5 4 3 2 3 3 2 4 7 8 5 7 13 12 10 10 8 7 6 7 11 13 10 9 10 8 5 5 4 6 10 12 11 10 9 7 7 10 11 8 6 7 7 8 9 8 6 5 5 5 3 3 4 5 5 5 4 6 8 9 10 10 10 9 9 10 9 9 8 8 10 11 11 11 12 13 13 12 11 12 11 12 14 13 10 8 8 9 8
3 4 4 4 4 5 5 5 4 1 2 3 2 1 1 4 9 9 6 6 8 9 12 12 10 9 7 8 8 9 11 9 7 6 5 6 3 4 10 13 15 15 11 7 8 11 11 7 6 7 7 8 9 7 6 5 4 3 2 2 5 7 6 5 5 8 9 9 9 8 6 5 8 9 9 9 8 7 7 9 10 10 9 9 9 9 8 8 9 10 12 13 11 9 8 7 6
3 1 2 2 2 3 3 3 4 2 3 4 2 1 0 2 8 8 6 6 7 7 10 11 12 11 8 8 7 7 9 8 6 4 3 6 3 1 7 12 15 17 12 7 9 12 10 6 6 8 9 10 9 7 5 4 4 2 1 2 4 7 6 5 6 8 9 8 7 6 4 3 6 8 8 8 8 7 8 8 8 9 8 7 7 8 11 10 9 8 9 12 12 11 10 9 8
2 1 4 4 2 5 3 2 6 5 3 3 3 2 1 3 8 8 3 6 9 11 12 10 9 7 3 5 9 11 10 7 6 3 4 9 3 -1 5 11 14 15 11 9 10 10 8 7 8 11 11 10 7 5 5 4 3 1 1 3 3 6 6 5 7 9 8 7 7 6 3 2 5 7 7 6 6 6 7 8 8 8 9 9 9 11 13 15 14 11 9 10 11 12 12 11 11
9 6 5 5 4 7 7 3 5 5 3 4 3 3 7 6 7 6 3 7 9 7 10 9 5 4 3 4 8 11 10 8 8 9 10 7 1 3 7 10 14 13 10 10 11 10 9 10 12 12 9 7 6 5 4 3 2 1 2 3 4 6 7 6 9 10 8 7 6 5 4 3 5 7 6 5 4 3 6 8 9 9 9 10 11 13 13 14 16 15 11 8 9 10 11 11 11
14 12 8 7 5 6 8 6 5 5 5 4 2 8 13 8 8 9 5 6 2 0 8 10 5 4 6 7 7 9 9 7 9 12 9 1 1 11 13 11 13 12 8 9 11 12 13 12 11 9 7 5 4 4 3 2 2 2 3 4 5 6 7 7 9 8 7 7 6 5 5 5 6 7 7 6 5 6 8 8 9 11 10 9 10 13 13 11 14 17 13 9 9 10 9 10 11
10 14 13 11 9 6 6 5 5 5 4 3 3 7 7 7 9 7 5 8 6 6 10 8 3 4 9 11 9 10 9 4 3 6 8 6 7 13 15 14 13 11 10 8 9 12 11 9 7 6 5 4 3 3 2 2 2 3 4 6 6 6 6 6 6 7 6 6 6 5 5 6 7 8 8 8 8 9 10 10 10 12 11 10 11 13 12 9 10 13 13 10 9 9 8 8 9
8 11 13 13 11 9 7 6 5 4 4 4 5 3 1 6 11 7 7 10 10 10 8 6 8 9 11 11 10 11 9 4 3 6 10 6 3 9 16 18 14 11 10 9 9 9 7 6 5 5 4 3 2 1 1 2 2 4 5 6 6 5 5 5 5 6 7 6 6 6 6 6 5 5 7 9 9 10 11 12 13 14 13 12 12 13 10 7 7 9 10 9 7 7 6 4 6
6 7 11 12 11 11 9 8 6 5 7 9 10 6 2 5 10 8 7 8 10 11 8 10 14 13 12 11 9 9 9 8 7 8 9 3 2 10 13 15 18 14 10 8 7 6 5 5 4 3 3 2 1 1 1 3 4 5 5 5 5 4 4 5 6 7 8 7 6 6 5 4 3 5 8 9 10 11 13 16 15 13 11 10 11 10 7 5 7 8 9 9 8 6 5 4 5
6 7 8 8 9 12 12 12 11 8 9 13 14 11 3 1 5 5 7 12 11 7 7 10 11 9 12 14 13 14 15 14 13 12 11 10 13 15 10 13 19 14 9 8 5 5 4 4 3 4 4 4 4 4 4 5 5 6 6 5 5 5 4 5 8 10 10 8 7 7 6 5 5 6 8 9 11 11 12 15 14 10 8 7 7 7 6 6 7 8 9 9 8 6 5 5 6
8 8 6 5 4 4 8 10 11 11 8 6 9 10 5 4 12 16 14 10 2 1 6 6 4 6 9 12 12 11 10 10 11 11 8 10 16 14 9 11 15 13 11 6 3 4 3 3 4 6 7 7 8 8 7 7 7 7 7 5 5 7 5 6 11 11 11 10 7 6 7 6 6 7 7 8 11 10 9 11 9 7 6 6 7 7 8 8 7 7 8 8 8 7 6 6 7
8 10 9 10 8 7 8 7 7 10 7 4 7 8 8 10 14 12 6 2 1 5 5 -0 2 6 5 5 5 4 5 7 9 8 2 3 11 12 8 8 12 13 10 6 4 4 3 3 5 7 8 8 8 9 7 7 7 6 7 6 8 9 6 9 11 9 14 16 9 6 3 3 6 7 6 9 12 11 7 7 6 5 5 5 7 8 9 9 8 8 8 8 8 6 6 7 6
8 10 10 12 12 9 7 6 9 6 -1 2 7 6 10 12 4 -3 -1 3 4 3 1 1 6 6 1 3 5 5 6 5 4 6 4 5 13 18 14 12 16 15 10 8 6 4 4 4 5 7 7 7 7 7 6 6 6 7 8 7 10 10 8 11 6 4 15 17 11 9 5 5 8 8 7 8 11 10 6 4 5 4 4 4 6 7 8 9 8 8 8 8 7 7 7 6 6
12 10 12 14 10 8 9 10 10 6 0 2 5 7 14 13 4 3 6 5 3 2 2 4 4 3 4 6 5 3 4 4 4 5 6 7 12 16 13 11 16 17 14 10 6 5 5 4 6 7 7 6 5 6 5 5 5 7 7 7 11 11 10 10 -0 -1 11 11 13 19 14 12 13 9 8 7 7 8 5 3 4 4 5 5 5 5 6 9 9 8 8 7 7 7 8 8 7
8 8 15 11 4 11 17 11 6 5 6 5 6 8 6 2 3 8 7 5 5 4 2 3 4 4 3 2 3 4 6 10 13 13 11 9 10 11 9 10 13 12 12 11 6 3 2 4 8 8 7 6 5 5 4 4 5 5 5 8 13 12 11 10 2 4 11 4 8 23 21 16 14 10 9 8 8 8 6 6 6 7 6 5 4 3 3 6 7 7 7 6 6 6 6 7 7
8 9 12 2 3 16 13 5 8 12 10 7 7 3 -7 -9 -2 -1 0 3 3 2 4 5 4 4 4 5 9 11 10 11 12 11 12 13 16 12 4 7 13 9 6 9 7 3 3 7 10 9 8 6 3 2 2 2 3 5 7 10 13 14 10 6 1 7 13 -0 -6 9 20 18 14 12 11 10 10 9 8 8 7 7 6 3 2 1 1 2 3 4 5 6 6 6 6 6 5
4 5 4 1 11 20 8 3 10 12 9 6 5 3 -4 -2 2 -0 0 2 0 2 5 3 2 7 11 11 11 8 5 6 8 9 11 15 18 15 7 7 14 12 7 7 7 6 6 8 9 7 4 2 1 1 1 3 4 4 7 10 12 14 12 9 3 1 9 7 -6 -5 8 14 13 12 12 10 9 8 7 7 6 6 5 3 3 3 3 3 3 4 4 4 6 7 8 7 7
-3 -3 -1 3 9 10 3 4 6 5 7 7 5 5 4 3 5 5 4 4 5 7 5 2 6 9 9 10 11 9 7 7 11 11 10 10 12 14 13 10 12 15 12 8 5 4 5 7 9 7 4 3 2 2 2 2 3 4 5 7 9 9 11 13 12 4 7 14 9 -0 -0 5 8 9 8 9 7 6 6 5 4 3 3 3 4 5 5 5 4 5 5 5 6 8 8 7 7
9 6 6 7 4 -2 -4 -1 3 6 10 11 6 1 2 3 2 2 3 3 4 5 3 3 4 3 3 5 5 8 17 21 20 11 6 7 6 7 9 7 6 12 14 11 6 5 6 8 8 7 5 5 3 3 4 3 4 5 4 5 6 9 12 13 15 14 13 13 13 9 3 1 3 4 4 4 3 2 1 0 1 2 4 6 6 7 7 6 6 6 6 7 7 8 8 6 7
11 13 12 7 2 2 4 5 8 12 14 17 16 5 1 5 3 1 4 3 1 2 4 5 8 7 4 5 6 8 12 14 9 -0 -1 6 6 9 16 14 13 16 14 12 11 9 8 7 7 8 5 5 5 5 6 6 7 7 5 6 8 11 13 12 12 14 13 11 11 13 13 10 9 8 5 5 4 5 6 7 10 11 11 11 9 8 7 6 6 6 7 8 7 7 7 6 7
6 11 12 11 12 15 16 9 4 5 4 11 20 11 2 7 10 6 3 -1 -2 4 9 7 6 6 4 7 12 9 5 4 1 -3 -1 2 2 12 21 15 13 14 8 7 9 7 7 6 5 7 5 5 7 7 7 7 8 8 8 10 11 10 9 9 9 10 12 14 14 15 18 18 19 16 11 10 10 11 13 13 13 12 10 8 6 5 5 5 5 6 7 8 7 7 7 7 8
12 12 9 9 12 16 18 10 -1 -1 1 4 14 14 12 16 16 11 8 3 -0 4 10 8 3 5 7 7 6 1 0 4 3 -0 1 3 6 13 16 8 3 0 -3 4 9 4 4 6 4 5 5 5 7 7 7 6 5 7 9 10 11 11 10 9 9 10 10 9 9 12 13 12 15 14 10 9 9 8 7 6 5 5 4 4 3 3 4 4 4 6 8 9 10 10 9 8 9
11 9 4 5 11 13 11 0 -3 12 16 8 8 11 15 17 13 10 9 5 4 5 8 9 9 10 11 8 5 3 3 2 1 -2 -0 6 10 11 13 13 7 -1 -4 2 9 7 5 7 7 9 9 8 8 6 6 7 6 7 10 12 12 10 8 7 8 10 10 8 9 10 8 6 7 8 5 5 6 4 3 2 3 3 4 4 4 4 5 5 6 7 9 11 12 12 10 9 9
Height
5886 5886 5886 5886 5885 5885 5884 5883 5882 5881 5880 5879 5880 5881 5881 5882 5881 5880 5879 5878 5878 5878 5878 5878 5877 5877 5877 5877 5877 5877 5877 5877 5876 5876 5876 5876 5876 5876 5875 5875 5875 5875 5875 5875 5874 5874 5874 5874 5874 5874 5874 5874 5874 5874 5874 5874 5874 5875 5875 5875 5876 5876 5876 5877 5877 5877 5878 5878 5878 5878 5878 5878 5878 5878 5879 5879 5879 5879 5879 5879 5879 5879 5879 5879 5879 5879 5879 5879 5879 5880 5880 5880 5881 5881 5881 5881 5882
5885 5885 5885 5884 5884 5883 5883 5882 5881 5880 5878 5877 5878 5879 5880 5880 5879 5878 5878 5878 5877 5877 5877 5877 5876 5876 5876 5876 5876 5876 5875 5875 5875 5875 5875 5875 5875 5875 5875 5875 5875 5874 5874 5874 5874 5874 5874 5873 5873 5873 5873 5874 5873 5873 5874 5874 5873 5874 5874 5875 5875 5875 5875 5876 5876 5876 5876 5876 5877 5877 5877 5877 5877 5877 5877 5877 5877 5877 5877 5877 5878 5878 5877 5877 5877 5878 5878 5878 5878 5879 5879 5879 5880 5880 5880 5880 5881
5884 5884 5883 5883 5882 5882 5881 5880 5880 5879 5877 5877 5877 5878 5879 5878 5877 5877 5877 5877 5876 5876 5875 5875 5875 5875 5874 5874 5875 5875 5874 5874 5874 5874 5874 5874 5874 5874 5874 5874 5874 5873 5873 5873 5874 5873 5873 5873 5873 5873 5873 5873 5873 5873 5873 5873 5873 5873 5873 5873 5873 5874 5874 5874 5874 5874 5875 5875 5875 5876 5876 5876 5876 5876 5876 5876 5876 5876 5876 5876 5876 5876 5876 5876 5876 5876 5876 5877 5877 5877 5877 5878 5878 5879 5879 5879 5880
5883 5883 5882 5881 5881 5880 5880 5879 5878 5877 5876 5875 5876 5877 5877 5876 5875 5875 5875 5875 5875 5875 5874 5874 5873 5873 5873 5873 5873 5873 5873 5872 5872 5872 5872 5873 5873 5873 5873 5873 5873 5873 5872 5872 5873 5873 5873 5873 5872 5872 5872 5872 5872 5872 5872 5872 5872 5872 5872 5871 5872 5872 5872 5872 5873 5873 5873 5874 5874 5874 5875 5875 5875 5875 5876 5876 5876 5876 5876 5876 5875 5875 5875 5875 5875 5875 5875 5875 5875 5876 5876 5876 5876 5877 5877 5878 5878
5882 5882 5881 5881 5880 5879 5879 5878 5877 5877 5875 5874 5874 5875 5876 5875 5874 5873 5874 5874 5873 5873 5873 5872 5872 5871 5871 5871 5871 5871 5871 5870 5870 5870 5870 5871 5871 5871 5871 5872 5872 5872 5871 5871 5872 5872 5872 5872 5872 5872 5871 5871 5871 5871 5871 5871 5871 5872 5871 5871 5871 5871 5871 5871 5871 5872 5872 5873 5873 5873 5874 5874 5874 5874 5874 5874 5875 5875 5875 5875 5875 5874 5874 5874 5874 5874 5874 5874 5874 5874 5874 5875 5875 5875 5875 5876 5876
5881 5881 5880 5880 5879 5879 5878 5877 5876 5876 5875 5874 5873 5874 5875 5874 5873 5872 5872 5872 5872 5872 5872 5871 5870 5870 5869 5869 5870 5870 5869 5868 5868 5868 5868 5868 5869 5869 5869 5870 5870 5870 5869 5870 5871 5871 5871 5871 5871 5871 5871 5870 5870 5870 5870 5870 5870 5871 5871 5870 5870 5870 5870 5870 5870 5871 5871 5872 5872 5872 5872 5872 5872 5872 5873 5873 5873 5873 5873 5873 5873 5874 5874 5874 5874 5873 5873 5873 5873 5873 5873 5873 5873 5874 5874 5874 5874
5880 5880 5879 5879 5879 5878 5877 5876 5876 5875 5875 5874 5873 5873 5873 5873 5872 5872 5872 5871 5871 5871 5870 5870 5870 5869 5868 5868 5868 5868 5868 5867 5866 5866 5866 5866 5867 5867 5867 5868 5868 5868 5867 5868 5869 5869 5869 5869 5869 5869 5869 5869 5869 5869 5869 5869 5869 5870 5870 5869 5869 5869 5869 5869 5870 5870 5870 5870 5871 5871 5871 5871 5871 5871 5871 5871 5871 5871 5871 5871 5872 5872 5872 5873 5873 5873 5873 5873 5873 5872 5872 5872 5872 5872 5872 5873 5873
5880 5879 5879 5878 5878 5877 5877 5876 5875 5875 5874 5873 5872 5872 5872 5871 5871 5871 5871 5871 5870 5870 5869 5869 5869 5868 5868 5867 5866 5866 5866 5866 5865 5864 5864 5864 5864 5865 5865 5865 5866 5866 5865 5866 5867 5867 5867 5867 5868 5868 5868 5868 5868 5868 5868 5868 5868 5868 5868 5868 5868 5868 5868 5868 5869 5869 5869 5869 5869 5869 5870 5870 5869 5869 5869 5869 5869 5869 5869 5870 5870 5870 5870 5871 5871 5872 5872 5872 5872 5872 5872 5872 5871 5871 5871 5871 5872
5879 5878 5878 5878 5877 5876 5876 5875 5875 5874 5874 5873 5872 5871 5871 5871 5871 5870 5870 5870 5869 5868 5868 5868 5868 5867 5867 5867 5865 5865 5865 5864 5863 5863 5863 5863 5863 5863 5863 5863 5864 5864 5863 5864 5864 5865 5865 5866 5866 5866 5866 5866 5866 5866 5866 5867 5867 5867 5867 5867 5867 5867 5867 5867 5867 5867 5868 5868 5868 5868 5868 5868 5868 5868 5868 5868 5868 5868 5868 5868 5868 5868 5869 5869 5869 5870 5870 5870 5870 5871 5871 5871 5871 5871 5871 5871 5871
5879 5878 5877 5877 5876 5876 5875 5875 5874 5874 5874 5873 5872 5871 5871 5870 5870 5870 5870 5869 5868 5868 5868 5867 5867 5867 5866 5866 5865 5864 5864 5863 5862 5862 5862 5861 5861 5861 5861 5862 5861 5861 5861 5862 5862 5863 5863 5864 5864 5864 5864 5865 5865 5865 5865 5865 5865 5865 5865 5866 5866 5866 5866 5866 5866 5866 5866 5866 5867 5867 5867 5867 5867 5867 5867 5867 5867 5867 5867 5867 5867 5867 5867 5867 5868 5868 5868 5868 5868 5869 5869 5869 5870 5870 5870 5870 5870
5878 5878 5877 5876 5876 5876 5875 5875 5874 5875 5874 5872 5871 5870 5870 5870 5870 5870 5870 5869 5868 5867 5867 5867 5866 5866 5866 5865 5864 5863 5863 5862 5862 5861 5861 5861 5860 5860 5860 5860 5860 5859 5860 5860 5860 5861 5861 5862 5862 5863 5863 5863 5863 5863 5863 5863 5863 5864 5864 5864 5864 5864 5864 5864 5864 5865 5865 5865 5865 5865 5865 5865 5865 5865 5865 5865 5865 5865 5865 5865 5865 5866 5866 5866 5866 5866 5866 5866 5866 5866 5867 5867 5867 5868 5868 5868 5868
5878 5877 5876 5876 5875 5875 5875 5874 5874 5874 5872 5871 5870 5869 5869 5869 5869 5869 5869 5869 5868 5867 5866 5866 5866 5865 5865 5864 5863 5863 5863 5862 5861 5861 5860 5860 5860 5859 5859 5859 5859 5858 5858 5859 5859 5859 5859 5860 5860 5861 5861 5861 5861 5861 5861 5861 5861 5862 5862 5862 5862 5862 5862 5862 5863 5863 5863 5863 5863 5863 5863 5863 5863 5863 5864 5864 5864 5864 5864 5864 5864 5864 5864 5864 5865 5865 5865 5864 5864 5864 5864 5864 5865 5865 5865 5866 5866
5877 5876 5876 5875 5875 5874 5874 5873 5873 5872 5871 5870 5870 5869 5869 5868 5868 5868 5868 5868 5868 5867 5866 5865 5865 5864 5864 5863 5862 5862 5862 5861 5860 5860 5860 5859 5859 5858 5858 5858 5857 5857 5857 5857 5857 5857 5857 5858 5858 5859 5859 5859 5859 5859 5859 5859 5859 5859 5859 5859 5860 5860 5860 5860 5860 5861 5861 5861 5861 5861 5861 5861 5861 5861 5862 5862 5862 5862 5862 5862 5862 5862 5862 5862 5862 5862 5862 5862 5862 5862 5862 5862 5862 5862 5863 5863 5864
5877 5876 5875 5875 5874 5874 5873 5873 5872 5872 5871 5870 5869 5869 5869 5868 5867 5867 5867 5867 5867 5866 5865 5865 5864 5864 5863 5862 5861 5860 5860 5860 5859 5859 5858 5858 5858 5857 5857 5857 5856 5856 5855 5855 5855 5855 5855 5856 5856 5856 5856 5856 5856 5856 5856 5856 5857 5857 5857 5857 5857 5857 5858 5858 5858 5858 5858 5858 5858 5858 5859 5859 5859 5859 5859 5860 5860 5860 5860 5861 5861 5861 5860 5860 5860 5860 5860 5860 5860 5860 5860 5860 5860 5860 5860 5861 5861
5876 5875 5875 5874 5874 5873 5872 5872 5872 5871 5871 5870 5869 5869 5868 5867 5866 5866 5865 5865 5865 5865 5864 5864 5863 5862 5862 5862 5860 5859 5858 5858 5858 5858 5857 5857 5856 5856 5856 5855 5855 5855 5854 5854 5854 5854 5853 5854 5854 5854 5854 5853 5853 5853 5853 5854 5854 5854 5855 5855 5855 5855 5855 5855 5855 5855 5856 5856 5856 5856 5856 5856 5857 5857 5857 5857 5857 5858 5858 5858 5858 5858 5858 5858 5858 5857 5857 5857 5857 5857 5857 5857 5857 5857 5858 5858 5858
5875 5875 5874 5873 5873 5872 5872 5871 5871 5871 5870 5869 5868 5868 5867 5867 5866 5865 5865 5864 5863 5863 5863 5863 5862 5861 5861 5860 5859 5858 5857 5857 5856 5856 5855 5855 5855 5854 5854 5854 5854 5853 5853 5852 5852 5852 5852 5852 5851 5851 5851 5851 5851 5851 5851 5851 5851 5852 5852 5852 5852 5853 5852 5853 5853 5853 5853 5853 5853 5853 5853 5854 5854 5854 5854 5854 5855 5855 5855 5855 5855 5855 5855 5855 5855 5855 5855 5854 5854 5854 5854 5854 5854 5855 5855 5855 5856
5874 5874 5873 5873 5872 5871 5871 5870 5870 5870 5869 5869 5868 5867 5867 5866 5865 5864 5864 5863 5862 5862 5862 5862 5861 5860 5860 5859 5858 5856 5855 5855 5854 5854 5854 5853 5853 5853 5852 5852 5852 5852 5852 5851 5851 5850 5850 5850 5850 5849 5849 5848 5848 5848 5848 5848 5849 5849 5849 5849 5849 5850 5850 5850 5850 5850 5850 5850 5850 5850 5850 5850 5851 5851 5851 5851 5851 5852 5852 5852 5852 5852 5852 5852 5852 5852 5852 5852 5852 5851 5851 5851 5852 5852 5852 5852 5853
5874 5873 5872 5871 5871 5870 5869 5869 5869 5868 5868 5868 5867 5866 5865 5865 5864 5863 5863 5862 5861 5861 5860 5860 5859 5858 5858 5858 5857 5856 5854 5854 5853 5852 5852 5852 5851 5851 5851 5850 5850 5850 5850 5849 5849 5849 5848 5848 5848 5847 5847 5846 5846 5846 5846 5845 5846 5846 5846 5846 5846 5846 5846 5846 5846 5846 5846 5846 5846 5846 5846 5847 5847 5847 5848 5848 5848 5848 5848 5848 5848 5848 5848 5848 5848 5848 5848 5848 5848 5848 5848 5848 5849 5849 5849 5849 5849
5872 5872 5871 5870 5870 5869 5868 5868 5867 5866 5866 5865 5865 5865 5865 5864 5863 5863 5862 5861 5860 5860 5860 5859 5858 5857 5857 5856 5855 5854 5853 5852 5852 5851 5851 5850 5850 5849 5849 5848 5848 5848 5848 5847 5847 5847 5846 5846 5845 5845 5844 5843 5843 5843 5843 5843 5843 5843 5843 5843 5843 5843 5843 5843 5843 5843 5843 5843 5843 5843 5843 5843 5843 5843 5844 5844 5844 5844 5844 5845 5845 5845 5845 5845 5845 5845 5845 5845 5845 5845 5845 5845 5845 5845 5846 5846 5846
5871 5870 5870 5868 5868 5868 5867 5866 5866 5865 5864 5863 5863 5863 5863 5862 5862 5862 5860 5860 5859 5858 5859 5858 5856 5855 5855 5854 5853 5852 5852 5851 5850 5849 5849 5848 5848 5847 5847 5846 5846 5845 5845 5845 5845 5844 5844 5843 5843 5842 5842 5841 5840 5841 5840 5840 5840 5840 5840 5840 5840 5840 5840 5840 5840 5840 5840 5840 5840 5840 5839 5839 5839 5840 5840 5840 5840 5841 5841 5841 5841 5841 5842 5842 5842 5842 5841 5841 5841 5841 5841 5841 5842 5842 5842 5842 5843
5869 5869 5868 5867 5866 5867 5865 5864 5864 5863 5862 5862 5861 5861 5861 5860 5860 5860 5859 5858 5856 5856 5857 5856 5855 5853 5853 5852 5851 5850 5850 5849 5848 5848 5847 5846 5846 5845 5845 5844 5844 5843 5843 5842 5842 5842 5841 5841 5840 5840 5839 5839 5838 5838 5838 5837 5837 5837 5837 5837 5837 5837 5837 5837 5837 5837 5837 5837 5837 5836 5836 5836 5836 5836 5836 5836 5837 5837 5837 5837 5837 5838 5838 5838 5838 5838 5838 5838 5837 5837 5838 5838 5838 5838 5838 5839 5839
5868 5867 5866 5865 5864 5865 5864 5862 5862 5861 5860 5859 5858 5858 5858 5858 5858 5857 5857 5856 5854 5853 5854 5855 5854 5852 5851 5850 5849 5849 5848 5847 5846 5845 5845 5844 5844 5843 5842 5842 5841 5840 5840 5839 5839 5839 5839 5838 5837 5837 5836 5836 5836 5835 5835 5834 5834 5834 5834 5834 5834 5834 5834 5834 5833 5833 5834 5833 5833 5833 5833 5832 5832 5832 5832 5832 5832 5832 5833 5833 5833 5834 5834 5834 5834 5834 5834 5834 5833 5833 5833 5834 5834 5834 5834 5835 5835
5865 5865 5863 5863 5862 5862 5862 5860 5860 5859 5858 5857 5856 5856 5855 5854 5855 5855 5855 5853 5851 5850 5851 5852 5852 5851 5850 5849 5848 5847 5846 5845 5844 5842 5842 5842 5841 5841 5840 5839 5838 5838 5837 5836 5836 5836 5835 5835 5834 5834 5833 5833 5833 5832 5832 5831 5831 5831 5830 5830 5830 5830 5830 5830 5830 5830 5830 5830 5830 5830 5830 5829 5829 5829 5829 5828 5828 5828 5828 5829 5829 5829 5829 5830 5830 5829 5829 5829 5829 5829 5829 5829 5830 5830 5830 5830 5830
5862 5862 5860 5860 5859 5859 5858 5858 5857 5856 5855 5854 5853 5853 5852 5851 5851 5853 5852 5849 5848 5848 5848 5848 5848 5848 5847 5847 5846 5845 5844 5842 5841 5840 5839 5838 5838 5837 5837 5837 5836 5835 5834 5833 5832 5832 5832 5831 5831 5830 5830 5829 5829 5829 5829 5828 5828 5827 5827 5827 5827 5827 5827 5826 5826 5827 5827 5827 5827 5827 5826 5826 5825 5825 5825 5824 5824 5824 5824 5824 5824 5824 5825 5825 5824 5824 5824 5825 5825 5825 5825 5825 5825 5825 5826 5826 5826
5858 5858 5857 5857 5856 5855 5854 5854 5854 5852 5851 5850 5849 5850 5848 5847 5847 5850 5849 5844 5844 5845 5844 5844 5843 5844 5843 5842 5842 5841 5841 5839 5838 5837 5836 5835 5834 5834 5833 5833 5833 5832 5831 5830 5829 5829 5828 5828 5828 5827 5826 5826 5826 5826 5825 5825 5825 5824 5823 5823 5823 5823 5823 5822 5822 5823 5822 5823 5823 5822 5822 5822 5822 5821 5821 5821 5820 5820 5820 5820 5820 5819 5819 5819 5819 5819 5819 5820 5820 5820 5820 5820 5820 5820 5821 5821 5821
5853 5853 5853 5854 5852 5851 5851 5851 5850 5848 5848 5847 5846 5846 5844 5843 5843 5847 5846 5839 5840 5842 5841 5840 5839 5840 5839 5838 5837 5836 5836 5835 5834 5833 5832 5831 5830 5830 5829 5829 5829 5829 5827 5827 5826 5825 5824 5824 5824 5823 5823 5822 5822 5822 5821 5821 5821 5820 5820 5820 5819 5819 5819 5819 5818 5818 5818 5818 5818 5818 5818 5818 5817 5817 5817 5816 5816 5816 5815 5815 5815 5815 5815 5815 5814 5814 5814 5815 5815 5815 5815 5815 5815 5815 5816 5816 5816
5849 5847 5848 5850 5848 5848 5848 5847 5846 5843 5844 5844 5841 5841 5841 5839 5839 5842 5841 5835 5835 5837 5836 5835 5834 5835 5835 5834 5834 5832 5832 5831 5829 5829 5828 5827 5826 5825 5825 5825 5825 5824 5824 5824 5823 5821 5821 5821 5820 5819 5819 5819 5819 5819 5818 5817 5817 5817 5816 5816 5816 5815 5815 5815 5815 5814 5813 5813 5814 5813 5813 5813 5813 5812 5812 5812 5811 5811 5811 5811 5811 5810 5810 5810 5809 5809 5809 5809 5810 5810 5810 5810 5810 5810 5811 5811 5811
5844 5842 5843 5845 5843 5843 5845 5842 5840 5839 5839 5839 5835 5835 5837 5836 5835 5837 5835 5831 5831 5832 5832 5831 5830 5830 5830 5829 5829 5828 5827 5826 5825 5825 5824 5822 5821 5821 5820 5820 5820 5820 5820 5820 5819 5818 5817 5817 5816 5816 5815 5815 5815 5814 5814 5813 5813 5813 5813 5812 5812 5811 5811 5811 5811 5810 5809 5809 5809 5809 5808 5808 5808 5808 5808 5807 5807 5807 5807 5806 5806 5805 5805 5805 5804 5804 5804 5804 5804 5804 5804 5804 5805 5805 5805 5806 5806
5840 5838 5836 5841 5839 5839 5842 5838 5836 5835 5833 5833 5829 5827 5833 5834 5832 5833 5830 5827 5826 5827 5828 5828 5826 5825 5824 5824 5823 5823 5823 5821 5820 5820 5819 5818 5816 5816 5816 5816 5815 5816 5816 5816 5815 5814 5813 5812 5812 5812 5811 5810 5810 5810 5809 5809 5809 5809 5809 5808 5808 5808 5807 5807 5807 5805 5805 5805 5805 5804 5804 5803 5803 5803 5803 5802 5802 5802 5802 5802 5801 5801 5800 5800 5799 5799 5799 5799 5799 5799 5799 5799 5799 5800 5800 5801 5801
5836 5833 5830 5835 5834 5835 5839 5834 5831 5831 5828 5828 5823 5820 5828 5832 5829 5829 5826 5822 5821 5822 5823 5824 5823 5822 5820 5819 5818 5818 5817 5816 5816 5815 5814 5813 5812 5811 5811 5811 5811 5811 5812 5812 5812 5810 5809 5808 5808 5807 5806 5805 5805 5805 5805 5805 5805 5804 5804 5804 5803 5804 5804 5803 5802 5801 5801 5801 5801 5800 5800 5799 5799 5798 5798 5797 5797 5797 5797 5796 5796 5796 5795 5795 5794 5794 5794 5794 5794 5794 5794 5794 5794 5794 5794 5795 5795
5832 5828 5827 5829 5826 5829 5836 5831 5828 5826 5823 5824 5819 5814 5822 5829 5826 5824 5821 5818 5817 5817 5818 5819 5819 5819 5817 5815 5813 5813 5813 5811 5811 5811 5810 5809 5807 5806 5806 5806 5806 5806 5807 5807 5807 5806 5805 5804 5803 5803 5802 5800 5800 5800 5800 5800 5800 5800 5800 5799 5799 5799 5799 5799 5798 5797 5797 5797 5796 5796 5795 5794 5794 5794 5793 5793 5792 5792 5792 5791 5791 5791 5790 5790 5789 5789 5789 5789 5789 5788 5788 5788 5788 5788 5789 5789 5790
5829 5823 5823 5824 5819 5821 5829 5829 5825 5821 5817 5818 5816 5810 5816 5824 5823 5820 5817 5814 5813 5813 5814 5814 5815 5815 5813 5811 5809 5808 5808 5807 5807 5807 5805 5804 5803 5802 5801 5801 5801 5801 5802 5803 5802 5801 5801 5799 5798 5798 5797 5796 5795 5795 5795 5796 5796 5795 5795 5794 5794 5795 5795 5794 5794 5793 5793 5792 5792 5791 5791 5790 5790 5789 5788 5788 5787 5787 5787 5786 5786 5786 5785 5785 5785 5784 5784 5784 5783 5783 5783 5782 5782 5782 5783 5783 5784
5826 5819 5817 5818 5816 5815 5821 5825 5823 5818 5813 5812 5810 5806 5810 5818 5818 5816 5814 5811 5809 5808 5808 5809 5810 5811 5809 5807 5806 5804 5803 5803 5802 5802 5801 5799 5799 5798 5797 5796 5796 5797 5797 5798 5797 5796 5796 5794 5793 5793 5793 5791 5790 5790 5791 5791 5791 5790 5790 5790 5790 5790 5790 5790 5789 5788 5788 5788 5787 5786 5786 5785 5785 5784 5784 5783 5783 5782 5782 5781 5781 5780 5780 5779 5779 5779 5779 5779 5778 5777 5777 5777 5776 5777 5777 5778 5778
5822 5816 5811 5811 5813 5811 5814 5818 5818 5814 5810 5806 5803 5800 5804 5811 5812 5811 5811 5808 5805 5804 5804 5805 5805 5805 5804 5803 5801 5800 5799 5799 5799 5798 5796 5796 5795 5794 5793 5792 5792 5792 5792 5792 5792 5791 5790 5789 5788 5788 5787 5786 5785 5786 5786 5786 5786 5786 5786 5785 5785 5785 5785 5785 5784 5783 5782 5782 5782 5781 5780 5780 5780 5779 5778 5778 5777 5777 5776 5776 5775 5775 5774 5774 5773 5773 5773 5773 5773 5772 5772 5771 5771 5771 5771 5772 5772
5814 5811 5808 5805 5807 5807 5810 5813 5811 5807 5803 5799 5797 5794 5796 5802 5805 5807 5807 5804 5801 5799 5800 5800 5801 5801 5800 5798 5798 5796 5795 5795 5795 5794 5793 5792 5791 5790 5789 5788 5787 5787 5787 5787 5787 5786 5785 5784 5783 5783 5782 5781 5781 5781 5781 5781 5781 5781 5781 5781 5780 5780 5780 5780 5779 5778 5777 5777 5776 5775 5775 5775 5775 5774 5773 5773 5772 5772 5771 5770 5770 5770 5769 5768 5768 5768 5767 5767 5767 5767 5766 5766 5765 5765 5765 5766 5766
5807 5806 5804 5801 5801 5801 5806 5809 5806 5801 5795 5791 5791 5788 5788 5793 5798 5801 5802 5800 5798 5797 5796 5795 5795 5796 5794 5793 5794 5792 5790 5791 5791 5790 5789 5788 5787 5786 5785 5784 5783 5783 5782 5782 5781 5781 5780 5779 5778 5778 5777 5777 5776 5776 5777 5777 5777 5776 5776 5776 5776 5775 5775 5775 5774 5773 5772 5771 5770 5770 5769 5770 5769 5768 5768 5767 5767 5766 5766 5765 5764 5764 5763 5763 5763 5762 5762 5762 5761 5761 5761 5760 5760 5759 5760 5760 5761
5802 5800 5799 5798 5795 5794 5801 5804 5802 5799 5788 5784 5787 5783 5781 5786 5791 5795 5795 5795 5795 5795 5793 5791 5791 5790 5789 5789 5789 5787 5786 5787 5787 5786 5785 5784 5782 5781 5780 5779 5778 5778 5777 5776 5776 5775 5775 5774 5773 5773 5773 5772 5772 5772 5772 5772 5772 5772 5771 5771 5770 5770 5770 5769 5768 5767 5766 5765 5764 5764 5764 5764 5763 5763 5762 5762 5761 5761 5760 5759 5759 5758 5758 5757 5757 5757 5756 5756 5756 5755 5755 5754 5754 5753 5753 5754 5755
5796 5794 5794 5793 5791 5791 5795 5797 5798 5796 5784 5779 5782 5777 5774 5780 5784 5788 5789 5789 5790 5791 5789 5788 5788 5785 5784 5785 5784 5782 5781 5782 5782 5781 5780 5779 5778 5777 5776 5775 5773 5772 5772 5771 5770 5770 5770 5769 5769 5768 5768 5768 5768 5768 5767 5767 5767 5766 5766 5765 5764 5764 5764 5763 5762 5761 5760 5760 5759 5758 5758 5758 5757 5757 5756 5756 5756 5755 5754 5753 5753 5752 5752 5752 5751 5751 5750 5750 5749 5749 5748 5748 5748 5747 5746 5747 5748
5790 5789 5789 5787 5787 5787 5787 5790 5793 5790 5779 5775 5776 5770 5766 5772 5777 5781 5783 5783 5785 5786 5785 5784 5783 5781 5780 5781 5780 5778 5777 5777 5776 5775 5774 5773 5773 5772 5771 5770 5768 5767 5766 5766 5765 5765 5765 5764 5764 5764 5763 5763 5763 5763 5762 5762 5761 5761 5760 5760 5759 5758 5758 5757 5756 5755 5755 5754 5753 5752 5752 5752 5752 5751 5750 5750 5749 5749 5748 5747 5747 5746 5746 5745 5745 5744 5744 5743 5743 5742 5742 5741 5741 5741 5740 5740 5741
5786 5785 5783 5780 5784 5783 5779 5783 5786 5782 5775 5770 5770 5763 5758 5763 5769 5774 5778 5778 5778 5781 5781 5780 5778 5777 5777 5776 5776 5774 5773 5772 5771 5770 5769 5768 5767 5766 5766 5765 5763 5762 5761 5761 5760 5760 5760 5759 5759 5759 5758 5758 5758 5757 5757 5756 5756 5756 5755 5754 5753 5753 5752 5751 5750 5750 5749 5748 5747 5747 5747 5746 5745 5745 5744 5744 5744 5743 5742 5741 5740 5740 5739 5739 5738 5738 5737 5737 5736 5736 5735 5735 5734 5734 5733 5733 5733
5782 5782 5779 5776 5779 5778 5773 5775 5776 5773 5769 5767 5765 5755 5748 5757 5762 5765 5773 5772 5772 5776 5775 5775 5774 5773 5773 5773 5771 5769 5768 5768 5767 5765 5764 5763 5762 5760 5760 5759 5758 5757 5756 5756 5755 5755 5754 5754 5754 5753 5753 5752 5752 5752 5751 5751 5751 5750 5749 5749 5748 5747 5746 5745 5745 5744 5742 5742 5741 5740 5741 5740 5739 5739 5738 5738 5738 5737 5736 5735 5734 5734 5733 5733 5732 5732 5731 5731 5730 5730 5729 5729 5729 5728 5727 5726 5726
5778 5776 5777 5776 5775 5772 5770 5770 5767 5763 5760 5762 5763 5748 5739 5749 5755 5758 5766 5766 5767 5771 5770 5770 5770 5768 5768 5769 5767 5765 5764 5763 5762 5760 5759 5758 5757 5755 5754 5753 5752 5751 5751 5750 5750 5749 5749 5749 5748 5747 5747 5746 5746 5746 5745 5745 5745 5744 5744 5743 5742 5741 5741 5740 5739 5738 5736 5736 5735 5734 5734 5734 5733 5733 5732 5732 5731 5731 5730 5729 5728 5727 5727 5726 5726 5725 5725 5724 5724 5723 5723 5723 5722 5722 5722 5720 5719
5771 5770 5774 5774 5770 5768 5767 5766 5762 5757 5753 5754 5754 5746 5735 5739 5747 5752 5756 5757 5760 5765 5765 5765 5765 5763 5762 5762 5762 5761 5760 5758 5757 5755 5754 5753 5751 5750 5749 5748 5747 5746 5746 5745 5744 5744 5743 5743 5743 5742 5742 5741 5741 5740 5740 5740 5739 5739 5738 5738 5737 5736 5735 5734 5733 5732 5731 5730 5729 5728 5727 5727 5727 5726 5726 5725 5724 5724 5723 5722 5721 5721 5720 5720 5719 5719 5719 5718 5717 5717 5716 5716 5716 5716 5715 5714 5712
5765 5767 5768 5767 5765 5764 5762 5761 5758 5753 5751 5746 5743 5741 5734 5731 5740 5748 5747 5746 5751 5756 5760 5760 5759 5757 5756 5756 5755 5755 5755 5754 5752 5750 5748 5747 5746 5745 5744 5743 5743 5742 5741 5740 5739 5739 5738 5738 5738 5737 5737 5736 5735 5735 5734 5734 5734 5733 5733 5732 5731 5731 5730 5728 5727 5726 5725 5724 5723 5722 5721 5721 5720 5720 5719 5718 5718 5717 5716 5715 5715 5714 5714 5713 5713 5712 5712 5712 5711 5710 5710 5709 5709 5708 5708 5707 5705
5762 5763 5761 5759 5759 5758 5757 5755 5753 5749 5747 5740 5735 5737 5735 5728 5733 5741 5738 5736 5742 5747 5751 5753 5752 5751 5750 5751 5749 5748 5749 5748 5747 5745 5743 5742 5741 5740 5739 5738 5739 5738 5737 5736 5736 5735 5734 5734 5733 5732 5732 5731 5730 5730 5729 5729 5728 5728 5727 5727 5726 5725 5724 5723 5722 5721 5719 5718 5717 5716 5715 5714 5714 5713 5712 5712 5711 5710 5710 5709 5709 5708 5708 5707 5707 5706 5706 5705 5704 5704 5703 5702 5701 5701 5700 5699 5697
5758 5757 5755 5754 5753 5751 5751 5749 5747 5745 5739 5734 5731 5733 5735 5728 5725 5732 5731 5732 5737 5740 5742 5744 5745 5743 5742 5745 5745 5741 5741 5742 5741 5740 5739 5738 5737 5735 5735 5734 5734 5733 5733 5732 5731 5731 5730 5729 5728 5727 5727 5726 5725 5724 5724 5723 5723 5723 5722 5722 5721 5720 5719 5719 5718 5716 5714 5712 5710 5709 5709 5708 5707 5706 5706 5705 5704 5704 5703 5703 5702 5702 5701 5701 5700 5700 5699 5698 5697 5696 5696 5695 5694 5692 5691 5691 5689
5751 5751 5749 5748 5746 5744 5744 5741 5740 5738 5730 5730 5731 5732 5736 5726 5714 5719 5725 5728 5732 5732 5735 5737 5737 5736 5735 5738 5741 5737 5734 5734 5734 5734 5733 5733 5732 5731 5730 5729 5729 5728 5727 5727 5726 5726 5725 5724 5723 5723 5722 5721 5720 5719 5718 5718 5717 5717 5717 5717 5716 5715 5714 5714 5713 5711 5709 5706 5704 5703 5702 5701 5701 5700 5699 5698 5697 5697 5696 5696 5696 5695 5695 5694 5693 5693 5692 5691 5690 5689 5688 5687 5685 5684 5683 5682 5681
5745 5745 5743 5741 5739 5737 5735 5732 5732 5730 5724 5726 5729 5731 5733 5722 5710 5713 5718 5721 5724 5724 5726 5728 5729 5730 5728 5728 5732 5732 5729 5727 5726 5726 5726 5725 5725 5725 5724 5723 5723 5723 5722 5721 5721 5720 5719 5719 5718 5717 5716 5715 5714 5713 5712 5712 5711 5711 5711 5711 5710 5709 5708 5708 5708 5707 5704 5701 5698 5696 5695 5695 5694 5693 5692 5691 5690 5689 5689 5689 5688 5688 5687 5687 5686 5685 5684 5683 5682 5681 5680 5679 5677 5676 5674 5673 5672
5740 5738 5735 5733 5732 5729 5726 5724 5724 5724 5723 5724 5725 5725 5721 5712 5708 5712 5714 5717 5718 5716 5716 5717 5720 5724 5722 5719 5720 5721 5723 5722 5720 5720 5720 5718 5716 5716 5716 5716 5716 5717 5716 5715 5715 5714 5713 5713 5712 5711 5710 5709 5708 5707 5706 5705 5705 5705 5704 5704 5704 5703 5702 5701 5701 5701 5699 5696 5692 5689 5688 5688 5687 5686 5685 5684 5683 5682 5682 5681 5681 5680 5680 5679 5678 5677 5676 5676 5675 5673 5672 5670 5669 5667 5666 5665 5663
5732 5730 5729 5726 5725 5720 5716 5719 5720 5718 5720 5721 5720 5716 5709 5703 5706 5709 5710 5713 5713 5711 5711 5710 5712 5715 5714 5711 5709 5709 5712 5714 5714 5714 5715 5714 5711 5708 5707 5708 5708 5709 5710 5709 5708 5708 5707 5706 5706 5705 5704 5702 5702 5701 5700 5699 5699 5698 5698 5698 5698 5697 5695 5695 5694 5694 5693 5691 5688 5684 5682 5681 5680 5679 5678 5677 5676 5675 5674 5674 5673 5673 5672 5671 5670 5669 5669 5668 5666 5665 5664 5662 5660 5659 5657 5656 5654
5724 5723 5722 5718 5717 5713 5711 5715 5715 5710 5712 5714 5711 5706 5701 5700 5702 5703 5703 5704 5704 5705 5706 5705 5705 5706 5704 5703 5702 5701 5703 5704 5705 5707 5708 5708 5707 5705 5703 5701 5701 5701 5701 5701 5701 5701 5701 5700 5700 5698 5697 5696 5695 5694 5694 5693 5692 5691 5691 5691 5691 5690 5688 5688 5687 5687 5686 5685 5683 5680 5677 5676 5674 5673 5671 5670 5669 5668 5667 5667 5666 5665 5664 5663 5663 5662 5660 5659 5658 5657 5655 5653 5652 5650 5648 5646 5645
5718 5716 5713 5710 5712 5712 5708 5708 5708 5704 5702 5703 5701 5696 5695 5698 5697 5698 5698 5695 5696 5699 5700 5699 5698 5697 5697 5697 5696 5696 5696 5696 5697 5699 5700 5700 5700 5700 5699 5697 5696 5694 5693 5692 5692 5693 5694 5693 5693 5692 5691 5690 5689 5688 5687 5686 5685 5684 5684 5683 5683 5682 5681 5680 5680 5679 5679 5678 5677 5675 5672 5670 5668 5667 5665 5664 5662 5661 5660 5660 5659 5658 5657 5656 5655 5654 5652 5651 5650 5648 5646 5645 5643 5641 5639 5636 5635
5710 5708 5706 5707 5709 5708 5701 5697 5700 5700 5693 5693 5695 5689 5688 5692 5690 5690 5692 5690 5691 5693 5693 5693 5692 5691 5690 5691 5691 5690 5690 5689 5690 5691 5692 5693 5693 5693 5693 5692 5691 5689 5687 5685 5684 5684 5685 5686 5686 5685 5684 5683 5682 5682 5680 5679 5678 5677 5676 5676 5675 5674 5673 5673 5672 5671 5671 5671 5669 5668 5667 5665 5662 5660 5658 5657 5655 5655 5654 5653 5651 5650 5649 5648 5647 5646 5644 5643 5641 5639 5637 5636 5634 5632 5629 5626 5625
5700 5700 5703 5705 5701 5698 5695 5689 5690 5691 5683 5683 5688 5684 5682 5686 5684 5683 5685 5685 5686 5685 5684 5685 5686 5685 5684 5685 5685 5683 5682 5681 5682 5684 5685 5686 5686 5685 5686 5685 5684 5683 5681 5679 5678 5677 5678 5678 5679 5678 5677 5676 5676 5674 5673 5671 5670 5669 5668 5668 5667 5666 5665 5665 5664 5664 5663 5662 5662 5661 5660 5658 5656 5653 5652 5650 5648 5647 5646 5645 5644 5643 5641 5640 5638 5637 5635 5634 5632 5630 5628 5626 5624 5622 5619 5616 5615
5692 5695 5699 5697 5692 5690 5689 5682 5679 5681 5675 5672 5677 5678 5677 5680 5681 5681 5680 5679 5679 5675 5674 5677 5679 5678 5677 5677 5678 5676 5674 5674 5675 5676 5677 5678 5678 5677 5677 5677 5676 5675 5675 5674 5673 5672 5671 5670 5670 5670 5669 5669 5668 5667 5665 5663 5662 5661 5661 5660 5659 5658 5658 5656 5655 5655 5654 5654 5653 5652 5652 5650 5648 5646 5644 5643 5641 5640 5638 5637 5636 5634 5633 5631 5630 5628 5627 5625 5623 5621 5619 5616 5614 5612 5609 5606 5605
5686 5686 5687 5686 5684 5682 5679 5674 5671 5671 5665 5662 5665 5667 5672 5678 5679 5680 5677 5674 5672 5666 5664 5669 5670 5670 5670 5669 5669 5668 5667 5668 5668 5668 5669 5671 5671 5670 5668 5667 5667 5667 5668 5668 5668 5667 5665 5663 5662 5662 5661 5661 5660 5659 5657 5655 5654 5653 5653 5652 5652 5650 5649 5648 5646 5646 5646 5645 5644 5643 5642 5641 5640 5639 5637 5635 5634 5632 5630 5629 5628 5626 5624 5622 5621 5619 5618 5616 5614 5612 5610 5607 5605 5603 5600 5597 5594
5676 5674 5674 5675 5676 5673 5668 5663 5663 5663 5657 5654 5654 5653 5665 5677 5674 5673 5673 5668 5666 5662 5658 5662 5663 5662 5663 5662 5660 5660 5659 5659 5659 5660 5661 5664 5664 5663 5662 5660 5658 5659 5660 5662 5662 5661 5659 5657 5656 5655 5654 5653 5652 5650 5649 5647 5646 5645 5645 5644 5643 5642 5641 5639 5638 5637 5637 5636 5635 5634 5634 5633 5632 5630 5629 5627 5625 5623 5622 5620 5619 5617 5616 5614 5612 5611 5609 5608 5605 5603 5601 5598 5595 5593 5590 5587 5584
5665 5662 5663 5665 5667 5664 5658 5651 5652 5655 5648 5646 5646 5639 5652 5672 5668 5664 5668 5663 5661 5660 5654 5655 5658 5656 5656 5656 5654 5654 5654 5653 5651 5650 5652 5656 5657 5655 5653 5652 5651 5652 5653 5653 5653 5653 5651 5650 5649 5648 5647 5646 5644 5642 5641 5640 5638 5638 5638 5636 5635 5634 5633 5632 5630 5629 5628 5628 5627 5626 5625 5624 5623 5622 5621 5619 5617 5615 5613 5611 5610 5608 5607 5605 5604 5602 5601 5599 5597 5594 5591 5588 5586 5583 5580 5578 5575